Pakanbaru, Indonesia

9:50 AM WIB on June 23, 2017 (GMT +0700)
Sultan Syarif Kasim Ii

Weather History for WIBB - April, 2013

Change the Weather History Date:

Tuesday, April 23, 2013

  Actual Average Record
Temperature  
Mean Temperature 83 °F -  
Max Temperature 93 °F - - ()
Min Temperature 73 °F - - ()
Cooling Degree Days 18    
Growing Degree Days 33 (Base 50)    
Moisture  
Dew Point 76 °F    
Average Humidity 79    
Maximum Humidity 100    
Minimum Humidity 49    
Precipitation  
Precipitation 0.39 in - - ()
Sea Level Pressure  
Sea Level Pressure 29.77 in    
Wind  
Wind Speed 2 mph ()    
Max Wind Speed 14 mph    
Max Gust Speed -    
Visibility 4.5 miles    
Events Rain , Thunderstorm    
T = Trace of Precipitation, MM = Missing Value Source: Averaged Metar Reports

Daily Weather History Graph

Daily Weather History Graph

Search for Another Location

Airport or City:

Trip Planner

Search our weather history database for the weather conditions in past years. The results will help you decide how hot, cold, wet, or windy it might be!

Date:

Astronomy

Apr. 23, 2013 Rise Set
Actual Time 6:08 AM WIB 6:16 PM WIB
Civil Twilight 5:47 AM WIB 6:37 PM WIB
Nautical Twilight 5:22 AM WIB 7:02 PM WIB
Astronomical Twilight 4:58 AM WIB 7:26 PM WIB
Moon 4:06 PM WIB 3:40 AM WIB
Length of Visible Light 12h 49m
Length of Day
12h 07m
Waxing Gibbous, 91% of the Moon is Illuminated
Apr 23
Waxing Gibbous
Apr 26
Full
May 2
Last Quarter
May 10
New
May 18
First Quarter

Hourly Weather History & Observations

Time (WIB) Temp. Heat Index Dew Point Humidity Pressure Visibility Wind Dir Wind Speed Gust Speed Precip Events Conditions
1:00 AM 75 °F - 75 °F 100% 29.79 in 5 mi Calm Calm - -   Partly Cloudy
4:00 AM 75 °F - 72 °F 89% 29.75 in 4 mi Calm Calm - -   Partly Cloudy
5:00 AM 75.2 °F - 75.2 °F 100% 29.74 in 4.3 mi Calm Calm - N/A   Partly Cloudy
6:00 AM 75.2 °F - 75.2 °F 100% 29.77 in 4.3 mi Calm Calm - N/A   Scattered Clouds
6:30 AM 75.2 °F - 75.2 °F 100% 29.77 in 4.3 mi Calm Calm - N/A   Scattered Clouds
7:00 AM 76 °F - 75 °F 95% 29.79 in 5 mi Calm Calm - -   Scattered Clouds
7:00 AM 75.2 °F - 75.2 °F 100% 29.77 in 5.0 mi Calm Calm - N/A   Partly Cloudy
8:00 AM 78.8 °F - 75.2 °F 89% 29.80 in 4.3 mi Calm Calm - N/A   Partly Cloudy
10:00 AM 85 °F - 77 °F 70% 29.83 in 6 mi Calm Calm - -   Scattered Clouds
10:00 AM 84.2 °F 94.1 °F 77.0 °F 79% 29.83 in 5.6 mi Calm Calm - N/A   Partly Cloudy
12:00 PM 91.4 °F 107.2 °F 78.8 °F 66% 29.77 in 6.2 mi SSE 5.8 mph - N/A   Scattered Clouds
1:00 PM 91 °F - 76 °F 54% 29.77 in 6 mi SSE 9.2 mph - -   Partly Cloudy
1:00 PM 91.4 °F 105.1 °F 77.0 °F 63% 29.77 in 6.2 mi SSE 9.2 mph - N/A   Scattered Clouds
2:00 PM 93.2 °F 107.2 °F 77.0 °F 59% 29.74 in 5.0 mi Calm Calm - N/A   Mostly Cloudy
3:00 PM 93.2 °F 107.2 °F 77.0 °F 59% 29.71 in 6.2 mi Calm Calm - N/A   Scattered Clouds
4:00 PM 93 °F - 76 °F 49% 29.69 in 6 mi Calm Calm - -   Partly Cloudy
4:00 PM 93.2 °F 105.0 °F 75.2 °F 56% 29.68 in 6.2 mi Calm Calm - N/A   Scattered Clouds
5:00 PM 91.4 °F 105.1 °F 77.0 °F 63% 29.71 in 4.3 mi NNE 6.9 mph - N/A   Mostly Cloudy
6:00 PM 87.8 °F 99.7 °F 77.0 °F 70% 29.74 in 3.7 mi NE 11.5 mph - N/A   Mostly Cloudy
7:00 PM 86 °F - 76 °F 66% 29.79 in 4 mi West 13.8 mph - - Thunderstorm Thunderstorm
7:00 PM 86.0 °F 96.9 °F 77.0 °F 74% 29.77 in 3.7 mi West 11.5 mph - N/A Thunderstorm Thunderstorm
8:00 PM 77.0 °F - 75.2 °F 94% 29.83 in 0.6 mi WNW 6.9 mph - N/A Rain , Thunderstorm Thunderstorms and Rain
9:00 PM 75.2 °F - 75.2 °F 100% 29.86 in 0.0 mi SSW 5.8 mph - N/A Rain , Thunderstorm Thunderstorms and Rain
10:00 PM 75 °F - 75 °F 99% 29.89 in 2 mi Calm Calm - - Rain , Thunderstorm Thunderstorms and Rain